www.pogodaiklimat.ru

Погода и климат >> Архив погоды >> Иран >> Ираншехр


ПОГОДА в Ираншехре

  • Прогноз погоды в Ираншехре
  • Монитор погоды в Ираншехре

АРХИВ ПОГОДЫ в Ираншехре

Время (UTC), дата Ветер
(напр.,м/с)
 
Видим.   Явления Облачность Т
(С)
Тd
(С)
f
(%)
Тe
(С)
Тes
(С)
Комфортность P
(гПа)
Po
(гПа)
Тmin
(С)
Tmax
(С)
R
(мм)
R24
(мм)
S
(см)
09 18.05 СЗ 2 20 км 4/1 1200 м
[Cu hum Ci sp]
+34.7 +10.8 23 +34 +51 опасность
солнечного
удара
1005.3 941.5
12 18.05 СЗ 2 20 км 8/3 1200 м
[Cu med, cong Ac As Cs]
+37.3 +7.8 17 +35 +39 очень
жарко
1003.0 939.3
15 18.05 ЮЗ 7 12 км 8/4 1050 м
[Cb calv Cs]
+34.4 +11.4 25 +34 +34 очень
жарко
1003.4 939.7 +37.6 666
18 18.05 З 4 6000 м мгла 8/5 1200 м
[Cu med, cong Ci sp]
+29.2 +13.0 37 +31 +31 жарко 1007.5 943.5
21 18.05 Ю 5 10 км 4/4 1200 м
[Cu med, cong]
+26.3 +13.0 44 +28 +28 жарко 1008.2 944.2
00 19.05 В 3 10 км ясно +24.5 +13.2 49 +27 +27 жарко 1007.0 943.2
03 19.05 В 3 20 км 6/1 1200 м
[Sc Cs]
+26.0 +14.9 50 +29 +31 душно 1007.5 943.5 +24.3 666
06 19.05 Ю 2 20 км 8/0
[Ac As Cs]
+30.0 +13.6 37 +32 +44 жарко 1008.6 944.4
09 19.05 ЮЗ 4 20 км 3/1 1200 м
[Cu hum Ci sp]
+34.7 +11.1 24 +34 +46 очень
жарко
1006.3 942.4 666
12 19.05 Ю 2 15 км 6/3 1200 м
[Cu med, cong Cs]
+36.0 +8.6 19 +34 +39 очень
жарко
1004.1 940.2
15 19.05 З 4 12 км 5/3 1200 м
[Sc diur, vesp Ci sp]
+34.6 +9.1 21 +33 +33 жарко 1004.4 940.5 +36.5
18 19.05 З 3 12 км 5/0
[Cs]
+31.1 +12.1 31 +32 +32 жарко 1007.4 943.4
21 19.05 СЗ 3 10 км 6/1 1200 м
[Sc diur, vesp Ac As Ci sp]
+30.3 +12.5 34 +31 +31 жарко 1006.7 943.2
00 20.05 З 2 12 км 3/0
[Ci sp]
+27.9 +11.8 37 +29 +29 жарко 1006.4 942.8
03 20.05 СЗ 3 12 км 4/0
[Cs]
+28.2 +13.3 40 +30 +32 жарко 1008.6 944.8 +26.9
06 20.05 З 4 15 км 4/0
[Ac As]
+31.4 +13.5 34 +33 +41 жарко 1009.4 945.5
09 20.05 ЮЗ 5 15 км 3/1 1200 м
[Cu hum Ac trans]
+35.1 +11.5 24 +35 +43 очень
жарко
1006.7 943.2
12 20.05 З 6 20 км 9/3 1200 м
[Cu med, cong Ac As]
+35.2 +9.0 20 +34 +34 очень
жарко
1004.7 941.0
15 20.05 З 7 8000 м пыльный позёмок 8/1 1200 м
[Sc diur, vesp Cs]
+31.8 +13.4 33 +33 +33 жарко 1005.3 941.4 +36.4
18 20.05 В 2 10 км 4/0
[Ac trans Ci sp]
+29.6 +11.7 33 +30 +30 жарко 1007.5 943.5
21 20.05 С 2 12 км 1/0
[Ci sp]
+28.1 +11.8 36 +29 +29 жарко 1006.5 942.8
00 21.05 СВ 2 12 км 3/0
[Ci sp]
+26.4 +11.2 39 +28 +28 жарко 1006.5 942.6
03 21.05 штиль 0 12 км 3/0
[Ci sp]
+29.5 +13.4 37 +31 +35 жарко 1007.9 944.0 +25.9
06 21.05 СЗ 2 12 км 5/0
[Cs]
+33.1 +14.8 33 +35 +51 опасность
солнечного
удара
1008.0 944.2
09 21.05 ЮЗ 7 12 км 5/5 1200 м
[Cu hum]
+36.2 +11.3 22 +35 +38 очень
жарко
1006.0 942.4
12 21.05 Ю 5 12 км 6/4 1200 м
[Cu med, cong Cs]
+35.7 +13.0 26 +36 +38 очень
жарко
1004.1 940.5
15 21.05 З 3 10 км 8/3 1200 м
[Sc diur, vesp Cs]
+34.1 +12.6 27 +34 +34 очень
жарко
1003.9 940.4 +38.4
18 21.05 З 7 10 км 9/1 1200 м
[Sc diur, vesp Ac As Ci sp]
+31.3 +15.3 38 +34 +34 душно 1006.0 942.5
21 21.05 З 5 8000 м мгла 9/0
[Ac trans Cs]
+27.9 +15.5 47 +31 +31 душно 1005.6 942.1
00 22.05 З 5 4000 м мгла 5/0
[Ac As Ci sp]
+25.8 +15.6 53 +29 +29 душно 1005.4 941.7
03 22.05 Ю 2 6000 м мгла 3/0
[Ac trans Ci fib]
+27.0 +17.0 54 +31 +34 душно 1007.2 943.4 +25.5
06 22.05 З 2 6000 м мгла 1/1 1200 м
[Cu hum]
+31.0 +17.0 43 +35 +50 очень
душно
1007.2 943.5
09 22.05 ЮЗ 3 8000 м мгла 3/1 1200 м
[Cu hum Ci sp]
+34.7 +15.1 31 +36 +51 опасность
солнечного
удара
1004.7 941.1 666
12 22.05 З 6 8000 м мгла 3/3 1200 м
[Cu med, cong]
+36.8 +9.5 19 +35 +37 очень
жарко
1002.3 938.8
15 22.05 З 5 8000 м мгла 8/3 1200 м
[Cu med, cong Cs]
+35.0 +9.3 21 +34 +34 очень
жарко
1002.4 938.8 +37.0
18 22.05 СВ 6 10 км ясно +30.0 +10.2 29 +30 +30 жарко 1004.6 940.8
21 22.05 штиль 0 10 км ясно +28.1 +9.4 31 +28 +28 жарко 1003.8 940.2
00 23.05 штиль 0 10 км ясно +27.0 +10.7 36 +28 +28 жарко 1003.9 940.4
03 23.05 штиль 0 10 км ясно +27.6 +11.1 36 +28 +33 жарко 1005.6 941.9 +25.2
06 23.05 ЮВ 2 7000 м мгла ясно +32.1 +11.6 29 +32 +50 жарко 1005.9 942.1
09 23.05 З 4 8000 м мгла 1/1 1200 м
[Cu hum]
+36.5 +10.3 20 +35 +48 очень
жарко
1003.6 940.2
12 23.05 З 6 10 км 1/1 1200 м
[Cu med, cong]
+37.0 +7.9 17 +35 +38 очень
жарко
1001.9 938.5
15 23.05 З 7 10 км 1/1 1200 м
[Sc diur, vesp]
+34.9 +7.9 19 +33 +33 жарко 1002.9 939.3 +37.8 666
18 23.05 С 6 12 км ясно +32.3 +8.0 22 +31 +31 жарко 1004.2 940.7
21 23.05 С 6 12 км ясно +30.1 +7.7 25 +29 +29 жарко 1004.1 940.8
00 24.05 С 3 12 км ясно +29.6 +7.1 24 +28 +28 жарко 1004.6 941.3
03 24.05 штиль 0 12 км ясно +29.7 +8.6 27 +29 +34 жарко 1007.0 943.3 +25.2
06 24.05 З 4 15 км 1/1 1200 м
[Cu hum]
+34.4 +8.4 20 +33 +43 жарко 1008.2 944.7
09 24.05 З 2 15 км 4/4 1200 м
[Cu hum]
+37.0 +9.2 19 +36 +48 очень
жарко
1006.6 943.2
12 24.05 З 4 15 км 1/1 1200 м
[Cu hum]
+38.1 +8.5 17 +36 +41 очень
жарко
1004.6 941.4
15 24.05 З 5 12 км 1/1 1200 м
[Sc diur, vesp]
+36.0 +7.6 18 +34 +34 очень
жарко
1005.7 942.2 +38.7
18 24.05 З 3 10 км ясно +32.9 +4.1 16 +30 +30 жарко 1006.6 943.2
21 24.05 СВ 3 10 км ясно +29.1 +3.3 19 +27 +27 жарко 1006.2 942.7
00 25.05 ЮЗ 2 10 км ясно +26.7 +4.8 25 +26 +26 жарко 1006.5 942.8
03 25.05 штиль 0 20 км ясно +30.0 +5.7 22 +29 +33 жарко 1008.4 944.7 +25.2
06 25.05 З 3 20 км ясно +35.4 +7.0 17 +33 +48 жарко 1008.6 945.2

 

Местоположение метеостанции Ираншехр (Иран): широта 27.20 долгота 60.70 высота над уровнем моря 591 м.

В архиве по умолчанию представлена погода в Ираншехре за последнюю неделю. Архивные данные за месяц целиком и за предыдущие месяцы, начиная с января 2011 года, Вы можете получить, выбрав интересующий диапазон дат из раскрывающегося списка и нажав кнопку "Ввод!".


*Определитесь, кто Вы:
робот инопланетянин человек

Внимание! Время в таблицах - всемирное. Для получения местного времени необходимо прибавить поправку, которая равна 3.5 ч.

Смотрите также архив погоды в соседних городах и на ближайших метеорологических станциях:

Погода в Сараване (Иран) (162 км)
Погода в Аэропорту Конарак (Иран) (214 км)
Погода в Захедане (Иран) (253 км)
Погода в Дживани (Пакистан) (261 км)
Погода в Нок-Кунди (Пакистан) (270 км)
Погода в Гавадаре (Пакистан) (282 км)
Погода в Кехнудже (Иран) (308 км)
Погода в Баме (Иран) (309 км)
Погода в Панджгуре (Пакистан) (338 км)
Погода в Джаске (Иран) (340 км)

Пояснения к столбцам:

Ветер - указаны скорость ветра в м/с - средняя за 10 мин, порывы в срок и между сроками (в фигурных скобках) и направление, откуда дует ветер: С - северный, СВ - северо-восточный, В - восточный, ЮВ - юго-восточный, Ю - южный, ЮЗ - юго-западный, З - западный, СЗ - северо-западный.
Видимость - горизонтальная дальность видимости в метрах или километрах. При видимости от 1 до 10 км при отсутствии осадков обычно наблюдается дымка, при ухудшении видимости до 1 км и менее - туман. В сухую погоду видимость может ухудшаться дымом, пылью или мглою.
Явления - указаны атмосферные явления, наблюдавшиеся в срок или в последний час перед сроком; фигурными скобками обозначены явления, наблюдавшиеся между сроками (за 1-3 часа до срока); квадратными скобками обозначены град или гололедные отложения с указанием их диаметра в мм.
Облачность - указаны через наклонную черту общая и нижняя облачность в баллах и высота нижней границы облаков в метрах; квадратными скобками обозначены формы облаков: Ci - перистые, Cs - перисто-слоистые, Cc - перисто-кучевые, Ac - высококучевые, As - высокослоистые, Sc - слоисто-кучевые, Ns - слоисто-дождевые, Cu - кучевые, Cb - кучево-дождевые. Подробнее классификацию облаков см. в Атласе облаков (PDF).
T - Температура воздуха - температура, измеренная на высоте 2 м над землей.
Td - Температура точки росы - температура, при понижении до которой содержащийся в воздухе водяной пар достигнет насыщения.
f - Относительная влажность воздуха - влажноcть воздуха, измеренная на высоте 2 м над землей.
Te - Эффективная температура - температура, которую ощущает одетый по сезону человек в тени. Характеристика душности погоды. При расчете учитывается влияние влажности воздуха и скорости ветра на теплоощущения человека.
Tes - Эффективная температура на солнце - температура, которую ощущает человек, с поправкой на солнечный нагрев. Характеристика знойности погоды. Зависит от высоты солнца над горизонтом, облачности и скорости ветра. Ночью, в пасмурную погоду, а также при ветре 12 м/с и более поправка равна нулю.
P - Атмосферное давление - приведенное к уровню моря атмосферное давление.
Po - Атмосферное давление - измеренное на уровне метеостанции атмосферное давление.
Tmin - Минимальная температура - минимум температуры воздуха на высоте 2 м над землей.
Tmax - Максимальная температура - максимум температуры воздуха на высоте 2 м над землей.
R - Количество осадков - Количество выпавших осадков за период времени, мм. При наведении курсора мыши на число - период времени, за который выпало указанное количество осадков.
R24 - Количество осадков - Количество выпавших осадков за 24 часа, мм.
S - Снежный покров - Высота снежного покрова, см. При наведении курсора мыши на число - состояние снежного покрова и степень покрытия местности в баллах.